Location: Little Maitland River
(43.8022°N, 81.1549°W)
Time: 16:46:12
(UTC+00:00)

Cosmos 2195 Rocket - Pass Details

Date: 09 December 2025
Orbit: 948 x 993 km, 82.9° (Epoch: 16 January)

Event Time Altitude Azimuth Distance (km) Brightness Sun altitude
Rises 10:57:33 0° 196° (SSW) 3,655 7.5 -19.0°
Reaches altitude 10° 11:00:04 10° 199° (SSW) 2,718 6.8 -18.6°
Maximum altitude 11:06:14 63° 281° (W) 1,091 4.5 -17.5°
Drops below altitude 10° 11:12:32 10° 2° (N) 2,761 6.7 -16.4°
Sets 11:15:07 0° 6° (N) 3,716 7.4 -15.9°
